www.pogodaiklimat.ru

Погода и климат >> Архив погоды >> Россия >> Краснодарский край >> Тамань


ПОГОДА в Тамани

  • Прогноз погоды в Тамани
  • Монитор погоды в Тамани

АРХИВ ПОГОДЫ в Тамани

Время (UTC), дата Ветер
(напр.,м/с)
 
Видим.   Явления Облачность Т
(С)
Тd
(С)
f
(%)
Тe
(С)
Тes
(С)
Комфортность P
(гПа)
Po
(гПа)
Тmin
(С)
Tmax
(С)
R
(мм)
R24
(мм)
S
(см)
09 11.06 СВ 4 20 км 8/0
[Ac As Ci]
+27.8 +17.0 52 +32 +39 душно 1011.0 1009.2
12 11.06 СВ 3 20 км 8/0
[Cs]
+29.8 +16.5 45 +33 +43 душно 1010.3 1008.5
15 11.06 СВ 2-14
{14}
20 км 10/0
[Cs]
+28.8 +17.6 51 +33 +36 очень
душно
1008.9 1007.1 +29.8
18 11.06 СВ 2
{14}
10 км 5/0
[Ci fib]
+26.5 +19.4 65 +32 +32 очень
душно
1009.1 1007.3
21 11.06 СВ 4 10 км 1/0
[Ci fib]
+26.2 +19.5 67 +32 +32 очень
душно
1007.8 1006.0
00 12.06 В 3 10 км ясно +23.0 +18.5 76 +29 +29 очень
душно
1007.1 1005.3
03 12.06 В 3 20 км ясно +23.5 +18.1 72 +28 +29 душно 1007.1 1005.3 +22.8
06 12.06 СВ 2 20 км 1/0
[Ci fib]
+26.4 +17.4 58 +31 +40 душно 1007.6 1005.7
09 12.06 СВ 4 20 км 6/0
[Ci]
+27.4 +18.1 57 +32 +43 очень
душно
1008.0 1006.1
12 12.06 СВ 2 20 км 6/3 1000 м
[Cu med, cong Ci fib]
+29.0 +19.5 57 +35 +44 очень
душно
1007.7 1005.9
15 12.06 ЮВ 2 20 км 8/6 1000 м
[Cu med, cong Ac As Cs]
+29.3 +18.0 51 +34 +35 очень
душно
1007.8 1006.0 +30.3
18 12.06 штиль 0 10 км 9/6 600 м
[Cu Sc Ac As]
+26.1 +19.9 69 +32 +32 очень
душно
1008.3 1006.5
21 12.06 штиль 0 10 км 6/6 600 м
[Cu Sc]
+23.7 +16.5 64 +27 +27 жарко 1008.6 1006.8
00 13.06 штиль 0 10 км 8/8 600 м
[Cu hum]
+24.5 +19.3 73 +30 +30 очень
душно
1008.9 1007.0
03 13.06 штиль 0 20 км 6/0
[Ac trans Ci fib]
+23.8 +18.7 73 +28 +29 душно 1008.7 1006.8 +22.9
06 13.06 В 1 20 км 6/0
[Ac trans]
+29.0 +18.1 52 +34 +41 очень
душно
1009.8 1008.0
09 13.06 Ю 2 20 км 8/8 600 м
[Cu med, cong]
+28.3 +20.6 63 +35 +39 очень
душно
1010.9 1009.1
12 13.06 Ю 2 20 км 9/5 600 м
[Cu med, cong Cs]
+27.9 +20.0 62 +34 +40 очень
душно
1011.1 1009.3
15 13.06 ЮЗ 2 20 км 6/3 600 м
[Cu med, cong Ac trans]
+27.4 +20.4 66 +34 +36 очень
душно
1011.6 1009.8 +29.4
18 13.06 штиль 0
{18}
10 км {гроза, ливн. осадки} 4/3 1000 м
[Sc Ci fib]
+23.2 +20.3 84 +30 +30 очень
душно
1011.2 1009.4
21 13.06 В 3 10 км 6/4 600 м
[Cu med, cong Ac trans]
+25.1 +17.7 64 +29 +29 душно 1011.1 1009.3
00 14.06 В 2 10 км 6/0
[Ci fib]
+22.9 +18.5 76 +29 +29 очень
душно
1011.9 1010.0
03 14.06 СВ 3 20 км 6/0
[Ac trans]
+22.5 +19.6 84 +29 +29 очень
душно
1012.2 1010.4 +19.2 9
06 14.06 СВ 4 20 км 8/8 1000 м
[Sc]
+26.5 +18.9 63 +32 +33 очень
душно
1013.0 1011.2
09 14.06 СВ 4 20 км 8/6 1000 м
[Sc Ac trans Ci sp]
+26.3 +18.4 62 +31 +35 душно 1014.1 1012.2
12 14.06 СВ 5
{10}
20 км 4/0
[Ac trans]
+27.8 +17.4 53 +32 +38 душно 1013.5 1011.7
15 14.06 СВ 4 20 км ясно +28.0 +17.2 52 +32 +34 душно 1013.1 1011.3 +28.1
18 14.06 СВ 3 10 км 8/0
[Ac trans Ci fib]
+26.5 +19.2 64 +32 +32 очень
душно
1013.6 1011.8
21 14.06 СВ 5 10 км 8/0
[Ac trans Ci fib]
+25.4 +16.1 56 +29 +29 душно 1013.0 1011.2
00 15.06 СВ 4
{10}
10 км 8/0
[Ci fib]
+24.2 +15.4 58 +27 +27 жарко 1012.3 1010.4
03 15.06 СВ 4 20 км ясно +23.2 +14.3 57 +27 +27 душно 1012.1 1010.2 +23.1
06 15.06 СВ 4 20 км ясно +24.1 +14.5 55 +27 +33 жарко 1012.2 1010.3
09 15.06 СВ 3 20 км 3/0
[Ci]
+28.3 +17.4 52 +32 +47 душно 1012.3 1010.4
12 15.06 С 1
{10}
20 км 1/0
[Ac trans]
+29.8 +19.4 54 +36 +51 опасность
солнечного
удара
1011.1 1009.2
15 15.06 СВ 3 20 км ясно +28.8 +18.5 54 +34 +36 очень
душно
1010.0 1008.2 +29.8
18 15.06 СВ 2 10 км ясно +26.4 +17.6 58 +31 +31 душно 1010.3 1008.5
21 15.06 В 2 10 км ясно +25.2 +17.3 62 +29 +29 душно 1010.2 1008.3
00 16.06 СВ 1 н/о н/о +22.7 +15.2 63 +27 +27 душно 1009.8 1008.0
03 16.06 штиль 0 20 км ясно +23.2 +15.6 62 +27 +29 душно 1009.2 1007.4 +21.9
06 16.06 СВ 2 20 км ясно +27.3 +16.3 51 +31 +41 душно 1009.8 1008.0
09 16.06 штиль 0 20 км ясно +30.9 +16.8 43 +34 +60 опасность
солнечного
удара
1010.0 1008.2
12 16.06 С 1 20 км 1/0
[Ci fib]
+29.7 +19.7 55 +36 +52 опасность
солнечного
удара
1009.5 1007.7
15 16.06 штиль 0 20 км ясно +30.3 +17.4 46 +34 +38 очень
душно
1009.0 1007.2 +26.9
18 16.06 штиль 0 10 км ясно +25.5 +18.6 66 +30 +30 душно 1008.8 1007.0
21 16.06 штиль 0 10 км 4/0
[Ac trans]
+24.6 +18.9 71 +30 +30 очень
душно
1009.1 1007.3
00 17.06 штиль 0 10 км ясно +23.8 +18.9 74 +29 +29 душно 1008.6 1006.8
03 17.06 СВ 3 20 км ясно +25.0 +21.3 80 +32 +32 очень
душно
1009.0 1007.2 +22.3
06 17.06 СВ 3 20 км ясно +25.7 +18.7 65 +31 +39 очень
душно
1010.4 1008.5
09 17.06 СВ 4 20 км ясно +26.7 +18.4 60 +31 +44 душно 1011.1 1009.3
12 17.06 СВ 4 20 км ясно +28.0 +17.8 54 +32 +42 душно 1010.7 1008.9
15 17.06 С 1 20 км ясно +27.7 +18.4 57 +33 +36 очень
душно
1010.5 1008.6 +28.4
18 17.06 СВ 2 10 км ясно +26.3 +18.7 63 +31 +31 душно 1010.5 1008.6
21 17.06 СВ 3 10 км ясно +25.7 +19.4 68 +31 +31 очень
душно
1011.3 1009.5
00 18.06 В 3 10 км ясно +23.6 +16.5 64 +27 +27 жарко 1011.4 1009.6
03 18.06 В 4 20 км ясно +24.3 +15.4 58 +27 +28 жарко 1012.1 1010.2 +23.4
06 18.06 СВ 4
{11}
20 км ясно +26.5 +15.4 51 +30 +36 душно 1012.3 1010.4

 

Местоположение метеостанции Тамань (Краснодарский край, Россия): широта 45.22 долгота 36.72 высота над уровнем моря 17 м.

В архиве по умолчанию представлена погода в Тамани за последнюю неделю. Архивные данные за месяц целиком и за предыдущие месяцы, начиная с января 2011 года, Вы можете получить, выбрав интересующий диапазон дат из раскрывающегося списка и нажав кнопку "Ввод!".


*Определитесь, кто Вы:
робот инопланетянин человек

Внимание! Время в таблицах - всемирное. Для получения местного времени необходимо прибавить поправку, которая равна 3 ч.

Смотрите также архив погоды в соседних городах и на ближайших метеорологических станциях:

Погода в Опасном (Крым, Россия) (18 км)
Погода в Керчи (Крым, Россия) (28 км)
Погода в Темрюке (Краснодарский край, Россия) (53 км)
Погода в Анапе (Краснодарский край, Россия) (58 км)
Погода в Мысовом (Крым, Россия) (75 км)
Погода в Новороссийске (Краснодарский край, Россия) (105 км)
Погода в Владиславовке (Крым, Россия) (105 км)
Погода в Крымске (Краснодарский край, Россия) (106 км)
Погода в Феодосии (Крым, Россия) (107 км)
Погода в Славянске-на-Кубани (Краснодарский край, Россия) (110 км)

Пояснения к столбцам:

Ветер - указаны скорость ветра в м/с - средняя за 10 мин, порывы в срок и между сроками (в фигурных скобках) и направление, откуда дует ветер: С - северный, СВ - северо-восточный, В - восточный, ЮВ - юго-восточный, Ю - южный, ЮЗ - юго-западный, З - западный, СЗ - северо-западный.
Видимость - горизонтальная дальность видимости в метрах или километрах. При видимости от 1 до 10 км при отсутствии осадков обычно наблюдается дымка, при ухудшении видимости до 1 км и менее - туман. В сухую погоду видимость может ухудшаться дымом, пылью или мглою.
Явления - указаны атмосферные явления, наблюдавшиеся в срок или в последний час перед сроком; фигурными скобками обозначены явления, наблюдавшиеся между сроками (за 1-3 часа до срока); квадратными скобками обозначены град или гололедные отложения с указанием их диаметра в мм.
Облачность - указаны через наклонную черту общая и нижняя облачность в баллах и высота нижней границы облаков в метрах; квадратными скобками обозначены формы облаков: Ci - перистые, Cs - перисто-слоистые, Cc - перисто-кучевые, Ac - высококучевые, As - высокослоистые, Sc - слоисто-кучевые, Ns - слоисто-дождевые, Cu - кучевые, Cb - кучево-дождевые. Подробнее классификацию облаков см. в Атласе облаков (PDF).
T - Температура воздуха - температура, измеренная на высоте 2 м над землей.
Td - Температура точки росы - температура, при понижении до которой содержащийся в воздухе водяной пар достигнет насыщения.
f - Относительная влажность воздуха - влажноcть воздуха, измеренная на высоте 2 м над землей.
Te - Эффективная температура - температура, которую ощущает одетый по сезону человек в тени. Характеристика душности погоды. При расчете учитывается влияние влажности воздуха и скорости ветра на теплоощущения человека.
Tes - Эффективная температура на солнце - температура, которую ощущает человек, с поправкой на солнечный нагрев. Характеристика знойности погоды. Зависит от высоты солнца над горизонтом, облачности и скорости ветра. Ночью, в пасмурную погоду, а также при ветре 12 м/с и более поправка равна нулю.
P - Атмосферное давление - приведенное к уровню моря атмосферное давление.
Po - Атмосферное давление - измеренное на уровне метеостанции атмосферное давление.
Tmin - Минимальная температура - минимум температуры воздуха на высоте 2 м над землей.
Tmax - Максимальная температура - максимум температуры воздуха на высоте 2 м над землей.
R - Количество осадков - Количество выпавших осадков за период времени, мм. При наведении курсора мыши на число - период времени, за который выпало указанное количество осадков.
R24 - Количество осадков - Количество выпавших осадков за 24 часа, мм.
S - Снежный покров - Высота снежного покрова, см. При наведении курсора мыши на число - состояние снежного покрова и степень покрытия местности в баллах.